This is the latest recevied weather packets stored in our database for station/object W0AKO. If no packets are shown the sender has not sent any weather packets the latest 1 day(s).
| Time | Temp. | Humidity | Pressure | Rain* | Wind** | Luminosity | Snow |
|---|---|---|---|---|---|---|---|
| 1778025703 | 22.78° C | 10% | 1009.2 hPa | 0 mm | - | 258 W/m² | - |
| 1778025401 | 22.78° C | 10% | 1009.5 hPa | 0 mm | - | 253 W/m² | - |
| 1778022070 | 23.33° C | 10% | 1009.6 hPa | 0 mm | - | 496 W/m² | - |
| 1778019643 | 22.78° C | 10% | 1010.1 hPa | 0 mm | - | 450 W/m² | - |
| 1778018734 | 22.78° C | 10% | 1010.2 hPa | 0 mm | - | 521 W/m² | - |
| 1778018432 | 22.78° C | 10% | 1010.6 hPa | 0 mm | - | 503 W/m² | - |
| 1778018130 | 22.78° C | 10% | 1010.7 hPa | 0 mm | - | 492 W/m² | - |
| 1778017827 | 22.78° C | 10% | 1010.7 hPa | 0 mm | - | 541 W/m² | - |
| 1778013283 | 21.67° C | 10% | 1011.5 hPa | 0 mm | - | 783 W/m² | - |
| 1778012979 | 21.67° C | 10% | 1011.5 hPa | 0 mm | - | 140 W/m² | - |
| 1778012372 | 21.67° C | 10% | 1011.7 hPa | 0 mm | - | 754 W/m² | - |
| 1778009650 | 21.11° C | 10% | 1011.8 hPa | 0 mm | - | 658 W/m² | - |
| 1778005103 | 20° C | 10% | 1012.6 hPa | 0 mm | - | 829 W/m² | - |
| 1778003586 | 20° C | 10% | 1012.6 hPa | 0 mm | - | 872 W/m² | - |
| 1778003283 | 19.44° C | 10% | 1012.7 hPa | 0 mm | - | 876 W/m² | - |
| 1777999342 | 18.33° C | 10% | 1012.7 hPa | 0 mm | - | 580 W/m² | - |
| 1777999040 | 18.33° C | 10% | 1012.9 hPa | 0 mm | - | 572 W/m² | - |
| 1777997829 | 17.78° C | 10% | 1012.9 hPa | 0 mm | - | 435 W/m² | - |
| 1777997527 | 17.78° C | 10% | 1013 hPa | 0 mm | - | 423 W/m² | - |
| 1777996314 | 17.22° C | 10% | 1012.9 hPa | 0 mm | - | 342 W/m² | - |
| 1777993582 | 16.67° C | 10% | 1013.4 hPa | 0 mm | - | 265 W/m² | - |
| 1777992975 | 16.67° C | 10% | 1013.1 hPa | 0 mm | - | 239 W/m² | - |
* Rain latest hour (hover to see other rain measurements)
** Current wind speed in m/s (hover to see current wind gust speed)